Weather History for Flag Island, MN

Change the Weather History Date:

Sunday, January 20, 2013

  Actual Average Record
Temperature  
Mean Temperature -10 °F -  
Max Temperature -2 °F 7 °F 24 °F (2007)
Min Temperature -20 °F -3 °F -20 °F (2000)
Degree Days  
Heating Degree Days 75    
Moisture  
Dew Point -19 °F    
Average Humidity 76    
Maximum Humidity 84    
Minimum Humidity 65    
Precipitation  
Precipitation 0.00 in - - ()
Sea Level Pressure  
Sea Level Pressure 30.22 in    
Wind  
Wind Speed 8 mph (WNW)    
Max Wind Speed 17 mph    
Max Gust Speed 23 mph    
Visibility 9 miles    
Events Snow    
Averages and records for this station are not official NWS values.
T = Trace of Precipitation, MM = Missing Value Source: NWS Daily Summary

Daily Weather History Graph

Daily Weather History Graph

Search for Another Location

Airport:

Trip Planner

Search our weather history database for the weather conditions in past years. The results will help you decide how hot, cold, wet, or windy it might be!

Date:

Astronomy

Jan. 20, 2013 Rise Set
Actual Time 8:04 AM CST 4:57 PM CST
Civil Twilight 7:29 AM CST 5:32 PM CST
Nautical Twilight 6:50 AM CST 6:12 PM CST
Astronomical Twilight 6:12 AM CST 6:49 PM CST
Moon 12:00 PM CST (1/20) 2:35 AM CST (1/20)
Length of Visible Light 10h 03m
Length of Day
8h 52m
Waxing Gibbous, 66% of the Moon is Illuminated
Jan 20
Waxing Gibbous
Jan 26
Full
Feb 3
Last Quarter
Feb 10
New
Feb 17
First Quarter

Hourly Weather History & Observations

Time (CST) Temp. Windchill Dew Point Humidity Pressure Visibility Wind Dir Wind Speed Gust Speed Precip Events Conditions
12:13 AM -14.8 °F -35.6 °F -18.4 °F 84% 30.22 in 10.0 mi NW 11.5 mph - N/A   Clear
12:33 AM -14.8 °F -33.5 °F -20.2 °F 77% 30.21 in 10.0 mi NW 9.2 mph - N/A   Clear
12:54 AM -16.6 °F -29.3 °F -20.2 °F 84% 30.21 in 10.0 mi NW 4.6 mph - N/A   Clear
1:13 AM -14.8 °F -32.2 °F -20.2 °F 77% 30.21 in 10.0 mi WNW 8.1 mph - N/A   Clear
1:33 AM -16.6 °F -31.3 °F -20.2 °F 84% 30.21 in 10.0 mi WNW 5.8 mph - N/A   Clear
1:54 AM -16.6 °F - -22.0 °F 76% 30.20 in 10.0 mi Calm Calm - N/A   Clear
2:13 AM -16.6 °F -29.3 °F -20.2 °F 84% 30.22 in 10.0 mi WNW 4.6 mph - N/A   Clear
2:34 AM -16.6 °F -32.9 °F -20.2 °F 84% 30.23 in 10.0 mi West 6.9 mph - N/A   Scattered Clouds
2:53 AM -16.6 °F -32.9 °F -20.2 °F 84% 30.23 in 10.0 mi WNW 6.9 mph - N/A   Scattered Clouds
3:13 AM -16.6 °F -32.9 °F -20.2 °F 84% 30.24 in 10.0 mi West 6.9 mph - N/A   Mostly Cloudy
3:34 AM -16.6 °F -31.3 °F -20.2 °F 84% 30.23 in 10.0 mi WNW 5.8 mph - N/A   Mostly Cloudy
3:53 AM -16.6 °F -34.4 °F -20.2 °F 84% 30.24 in 10.0 mi West 8.1 mph - N/A   Mostly Cloudy
4:13 AM -16.6 °F -32.9 °F -20.2 °F 84% 30.24 in 10.0 mi WNW 6.9 mph - N/A   Mostly Cloudy
4:34 AM -16.6 °F -32.9 °F -20.2 °F 84% 30.25 in 10.0 mi WNW 6.9 mph - N/A   Mostly Cloudy
4:53 AM -16.6 °F -29.3 °F -20.2 °F 84% 30.25 in 10.0 mi WNW 4.6 mph - N/A   Scattered Clouds
5:13 AM -16.6 °F -26.8 °F -20.2 °F 84% 30.23 in 10.0 mi NW 3.5 mph - N/A   Clear
5:34 AM -16.6 °F -29.3 °F -20.2 °F 84% 30.23 in 10.0 mi WNW 4.6 mph - N/A   Scattered Clouds
5:53 AM -16.6 °F -31.3 °F -20.2 °F 84% 30.24 in 10.0 mi WNW 5.8 mph - N/A   Scattered Clouds
6:14 AM -16.6 °F -29.3 °F -20.2 °F 84% 30.23 in 10.0 mi WNW 4.6 mph - N/A   Mostly Cloudy
6:33 AM -14.8 °F -27.2 °F -20.2 °F 77% 30.23 in 5.0 mi West 4.6 mph - N/A   Haze
6:54 AM -16.6 °F -31.3 °F -20.2 °F 84% 30.24 in 10.0 mi WNW 5.8 mph - N/A   Overcast
7:13 AM -14.8 °F -24.8 °F -20.2 °F 77% 30.24 in 2.5 mi NW 3.5 mph - N/A Snow Light Snow
7:34 AM -14.8 °F -29.1 °F -20.2 °F 77% 30.23 in 7.0 mi NW 5.8 mph - N/A Snow Light Snow
7:53 AM -14.8 °F -27.2 °F -20.2 °F 77% 30.23 in 10.0 mi NW 4.6 mph - N/A   Overcast
8:14 AM -14.8 °F -27.2 °F -20.2 °F 77% 30.23 in 2.5 mi NW 4.6 mph - N/A Snow Light Snow
8:34 AM -14.8 °F - -20.2 °F 77% 30.23 in 2.0 mi Calm Calm - N/A Snow Light Snow
8:53 AM -14.8 °F -29.1 °F -20.2 °F 77% 30.24 in 3.0 mi West 5.8 mph - N/A   Haze
9:14 AM -14.8 °F -24.8 °F -20.2 °F 77% 30.24 in 3.0 mi WNW 3.5 mph - N/A   Haze
9:33 AM -14.8 °F - -20.2 °F 77% 30.24 in 10.0 mi Calm Calm - N/A   Mostly Cloudy
9:53 AM -14.8 °F - -18.4 °F 84% 30.24 in 10.0 mi Calm Calm - N/A   Scattered Clouds
10:14 AM -13.0 °F -25.1 °F -18.4 °F 77% 30.25 in 10.0 mi WNW 4.6 mph - N/A   Clear
10:33 AM -11.2 °F -26.4 °F -18.4 °F 70% 30.25 in 10.0 mi NW 6.9 mph - N/A   Clear
10:54 AM -11.2 °F -26.4 °F -16.6 °F 77% 30.25 in 10.0 mi NW 6.9 mph - N/A   Clear
11:13 AM -11.2 °F -24.8 °F -16.6 °F 77% 30.26 in 10.0 mi WNW 5.8 mph - N/A   Clear
11:33 AM -9.4 °F -24.3 °F -14.8 °F 77% 30.25 in 10.0 mi WNW 6.9 mph - N/A   Clear
11:54 AM -7.6 °F -18.8 °F -14.8 °F 71% 30.24 in 10.0 mi NW 4.6 mph - N/A   Clear
12:13 PM -5.8 °F -18.4 °F -13.0 °F 71% 30.23 in 10.0 mi NW 5.8 mph - N/A   Clear
12:34 PM -5.8 °F -23.4 °F -11.2 °F 77% 30.22 in 7.0 mi WNW 10.4 mph - N/A   Clear
12:53 PM -5.8 °F -22.4 °F -11.2 °F 77% 30.22 in 1.5 mi NW 9.2 mph - N/A   Haze
1:13 PM -5.8 °F -21.2 °F -11.2 °F 77% 30.21 in 3.0 mi NNW 8.1 mph - N/A   Haze
1:53 PM -2.2 °F -19.9 °F -11.2 °F 66% 30.21 in 5.0 mi WNW 11.5 mph - N/A   Haze
2:14 PM -4.0 °F -25.2 °F -9.4 °F 78% 30.21 in 2.5 mi WNW 16.1 mph - N/A   Haze
2:33 PM -4.0 °F -24.5 °F -11.2 °F 71% 30.20 in 10.0 mi WNW 15.0 mph - N/A   Mostly Cloudy
2:54 PM -5.8 °F -26.0 °F -13.0 °F 71% 30.19 in 10.0 mi WNW 13.8 mph - N/A   Clear
3:13 PM -4.0 °F -23.7 °F -13.0 °F 65% 30.19 in 10.0 mi WNW 13.8 mph - N/A   Scattered Clouds
3:34 PM -5.8 °F -26.8 °F -11.2 °F 77% 30.19 in 5.0 mi WNW 15.0 mph - N/A   Haze
3:54 PM -5.8 °F -26.0 °F -11.2 °F 77% 30.19 in 2.0 mi WNW 13.8 mph - N/A   Haze
4:13 PM -7.6 °F -26.6 °F -13.0 °F 77% 30.19 in 10.0 mi NW 11.5 mph - N/A   Scattered Clouds
4:34 PM -7.6 °F -30.5 °F -14.8 °F 71% 30.18 in 10.0 mi WNW 17.3 mph - N/A   Clear
4:53 PM -7.6 °F -29.1 °F -16.6 °F 65% 30.18 in 10.0 mi WNW 15.0 mph 21.9 mph N/A   Clear
5:13 PM -9.4 °F -30.6 °F -16.6 °F 71% 30.19 in 10.0 mi WNW 13.8 mph - N/A   Clear
5:34 PM -9.4 °F -29.8 °F -16.6 °F 71% 30.19 in 10.0 mi WNW 12.7 mph - N/A   Clear
5:53 PM -11.2 °F -30.1 °F -16.6 °F 77% 30.19 in 10.0 mi WNW 10.4 mph - N/A   Scattered Clouds
6:13 PM -9.4 °F -31.4 °F -16.6 °F 71% 30.18 in 10.0 mi West 15.0 mph - N/A   Overcast
6:34 PM -11.2 °F -33.7 °F -18.4 °F 70% 30.18 in 10.0 mi West 15.0 mph - N/A   Scattered Clouds
6:53 PM -11.2 °F -33.7 °F -18.4 °F 70% 30.18 in 10.0 mi West 15.0 mph 23.0 mph N/A   Clear
7:13 PM -13.0 °F -36.8 °F -18.4 °F 77% 30.19 in 10.0 mi WNW 16.1 mph 20.7 mph N/A   Clear
7:34 PM -14.8 °F -39.1 °F -20.2 °F 77% 30.19 in 10.0 mi WNW 16.1 mph - N/A   Scattered Clouds
7:53 PM -14.8 °F -39.8 °F -20.2 °F 77% 30.19 in 10.0 mi WNW 17.3 mph - N/A   Scattered Clouds
8:14 PM -14.8 °F -39.8 °F -22.0 °F 70% 30.19 in 10.0 mi WNW 17.3 mph 21.9 mph N/A   Clear
8:34 PM -16.6 °F -41.4 °F -23.8 °F 70% 30.20 in 10.0 mi WNW 16.1 mph 19.6 mph N/A   Clear
8:53 PM -16.6 °F -40.6 °F -23.8 °F 70% 30.20 in 10.0 mi WNW 15.0 mph - N/A   Clear
9:14 PM -16.6 °F -40.6 °F -23.8 °F 70% 30.20 in 10.0 mi NW 15.0 mph - N/A   Clear
9:34 PM -16.6 °F -39.8 °F -23.8 °F 70% 30.20 in 10.0 mi NW 13.8 mph 21.9 mph N/A   Clear
9:53 PM -16.6 °F -38.9 °F -23.8 °F 70% 30.20 in 10.0 mi WNW 12.7 mph - N/A   Clear
10:14 PM -18.4 °F -42.1 °F -25.6 °F 70% 30.20 in 10.0 mi WNW 13.8 mph - N/A   Clear
10:33 PM -18.4 °F -41.2 °F -25.6 °F 70% 30.20 in 10.0 mi WNW 12.7 mph - N/A   Clear
10:53 PM -18.4 °F -41.2 °F -25.6 °F 70% 30.20 in 10.0 mi WNW 12.7 mph - N/A   Scattered Clouds
11:14 PM -18.4 °F -42.1 °F -25.6 °F 70% 30.20 in 10.0 mi WNW 13.8 mph - N/A   Clear
11:34 PM -18.4 °F -42.1 °F -25.6 °F 70% 30.19 in 10.0 mi WNW 13.8 mph - N/A   Clear
11:53 PM -20.2 °F -43.4 °F -25.6 °F 76% 30.19 in 10.0 mi WNW 12.7 mph - N/A   Scattered Clouds